When you browse on this site, cookies collect data to enhance your experience and personalize the content and advertising you see.
Visit our Privacy Policy to learn more. By continuing to use the site, you agree to this use of cookies and data.
  • în România
  • Lista ţărilor
  • Pe 7 zile
  • Temperatura apei
  • Hartă satelitară
  • Meteo pe hartă
  • Widget-uri
  • user-avatar
    Intrare

    Meteo pe oră la Andora

    Astăzi, 16 Iunie, Duminică

    Timp Temperatura Precipitaţii Vânt Presiune Umiditate
    00:00 +7°C° 0 mm 1 m/s 626 mmHg 90%
    01:00 +7°C° 0 mm 1 m/s 626 mmHg 89%
    02:00 +6°C° 0 mm 1 m/s 626 mmHg 89%
    03:00 +6°C° 0 mm 1 m/s 625 mmHg 88%
    04:00 +6°C° 0 mm 0 m/s 626 mmHg 83%
    05:00 +8°C° 0 mm 0 m/s 627 mmHg 78%
    06:00 +9°C° 0 mm 0 m/s 627 mmHg 71%
    07:00 +12°C° 0 mm 1 m/s 628 mmHg 62%
    08:00 +14°C° 0 mm 1 m/s 629 mmHg 53%
    09:00 +16°C° 0 mm 1 m/s 629 mmHg 44%
    10:00 +17°C° 0 mm 2 m/s 630 mmHg 42%
    11:00 +18°C° 0 mm 2 m/s 630 mmHg 40%
    12:00 +19°C° 0 mm 2 m/s 630 mmHg 38%
    13:00 +20°C° 0 mm 2 m/s 630 mmHg 39%
    14:00 +20°C° 0 mm 2 m/s 629 mmHg 40%
    15:00 +20°C° 0 mm 2 m/s 629 mmHg 41%
    16:00 +19°C° 0 mm 2 m/s 628 mmHg 47%
    17:00 +19°C° 0 mm 1 m/s 628 mmHg 54%
    18:00 +18°C° 0 mm 1 m/s 627 mmHg 60%
    19:00 +15°C° 0 mm 1 m/s 627 mmHg 67%
    20:00 +13°C° 0 mm 1 m/s 626 mmHg 73%
    21:00 +11°C° 0 mm 1 m/s 626 mmHg 79%
    22:00 +11°C° 0 mm 1 m/s 626 mmHg 79%
    23:00 +10°C° 0 mm 1 m/s 625 mmHg 78%

    Mâine, 17 Iunie, Luni

    Timp Temperatura Precipitaţii Vânt Presiune Umiditate
    00:00 +10°C° 0 mm 1 m/s 625 mmHg 77%
    01:00 +10°C° 0 mm 1 m/s 625 mmHg 76%
    02:00 +10°C° 0 mm 1 m/s 625 mmHg 74%
    03:00 +10°C° 0 mm 1 m/s 625 mmHg 73%
    04:00 +11°C° 0 mm 1 m/s 625 mmHg 70%
    05:00 +12°C° 0 mm 1 m/s 626 mmHg 68%
    06:00 +13°C° 0 mm 1 m/s 626 mmHg 65%
    07:00 +15°C° 0 mm 1 m/s 627 mmHg 57%
    08:00 +19°C° 0 mm 1 m/s 628 mmHg 49%
    09:00 +21°C° 0 mm 1 m/s 629 mmHg 41%
    10:00 +21°C° 0 mm 1 m/s 629 mmHg 41%
    11:00 +21°C° 0 mm 1 m/s 629 mmHg 40%
    12:00 +21°C° 0 mm 2 m/s 629 mmHg 39%
    13:00 +21°C° 0.2 mm 2 m/s 628 mmHg 40%
    14:00 +22°C° 0.2 mm 1 m/s 628 mmHg 42%
    15:00 +22°C° 0.2 mm 1 m/s 627 mmHg 43%
    16:00 +21°C° 0.2 mm 1 m/s 627 mmHg 49%
    17:00 +20°C° 0.2 mm 1 m/s 627 mmHg 54%
    18:00 +19°C° 0.2 mm 1 m/s 626 mmHg 60%
    19:00 +16°C° 0 mm 1 m/s 626 mmHg 65%
    20:00 +14°C° 0 mm 1 m/s 625 mmHg 70%
    21:00 +12°C° 0 mm 1 m/s 624 mmHg 76%
    22:00 +12°C° 0 mm 1 m/s 624 mmHg 75%
    23:00 +12°C° 0 mm 1 m/s 624 mmHg 75%

    Poimâine, 18 Iunie, Marţi

    Timp Temperatura Precipitaţii Vânt Presiune Umiditate
    00:00 +11°C° 0 mm 1 m/s 624 mmHg 75%
    01:00 +11°C° 0 mm 1 m/s 624 mmHg 74%
    02:00 +11°C° 0 mm 1 m/s 624 mmHg 72%
    03:00 +11°C° 0 mm 1 m/s 623 mmHg 71%
    04:00 +13°C° 0 mm 1 m/s 624 mmHg 67%
    05:00 +14°C° 0 mm 1 m/s 624 mmHg 64%
    06:00 +15°C° 0 mm 1 m/s 625 mmHg 60%
    07:00 +18°C° 0 mm 1 m/s 625 mmHg 52%
    08:00 +19°C° 0 mm 2 m/s 626 mmHg 44%
    09:00 +21°C° 0 mm 2 m/s 627 mmHg 36%
    10:00 +22°C° 0 mm 3 m/s 627 mmHg 35%
    11:00 +22°C° 0 mm 3 m/s 627 mmHg 33%
    12:00 +23°C° 0 mm 4 m/s 627 mmHg 32%
    13:00 +23°C° 0 mm 4 m/s 627 mmHg 32%
    14:00 +23°C° 0 mm 4 m/s 626 mmHg 33%
    15:00 +23°C° 0 mm 5 m/s 626 mmHg 33%
    16:00 +22°C° 0 mm 4 m/s 626 mmHg 38%
    17:00 +20°C° 0 mm 3 m/s 625 mmHg 44%
    18:00 +19°C° 0 mm 2 m/s 625 mmHg 49%
    19:00 +17°C° 0 mm 2 m/s 624 mmHg 55%
    20:00 +15°C° 0 mm 2 m/s 623 mmHg 61%
    21:00 +12°C° 0 mm 1 m/s 622 mmHg 67%
    22:00 +12°C° 0 mm 1 m/s 622 mmHg 67%
    23:00 +12°C° 0 mm 1 m/s 622 mmHg 66%

    19 Iunie, Miercuri

    Timp Temperatura Precipitaţii Vânt Presiune Umiditate
    00:00 +11°C° 0 mm 1 m/s 622 mmHg 66%
    01:00 +11°C° 0 mm 1 m/s 622 mmHg 63%
    02:00 +11°C° 0 mm 1 m/s 622 mmHg 60%
    03:00 +11°C° 0 mm 1 m/s 622 mmHg 57%
    04:00 +12°C° 0 mm 1 m/s 623 mmHg 56%
    05:00 +13°C° 0 mm 1 m/s 623 mmHg 55%
    06:00 +14°C° 0 mm 1 m/s 624 mmHg 54%
    07:00 +16°C° 0 mm 1 m/s 625 mmHg 47%
    08:00 +18°C° 0 mm 2 m/s 626 mmHg 39%
    09:00 +20°C° 0 mm 2 m/s 626 mmHg 32%
    10:00 +21°C° 0 mm 3 m/s 626 mmHg 31%
    11:00 +21°C° 0 mm 3 m/s 626 mmHg 31%
    12:00 +22°C° 0 mm 3 m/s 626 mmHg 30%
    13:00 +22°C° 0 mm 3 m/s 626 mmHg 31%
    14:00 +22°C° 0 mm 3 m/s 626 mmHg 32%
    15:00 +22°C° 0 mm 3 m/s 625 mmHg 33%
    16:00 +21°C° 0 mm 3 m/s 625 mmHg 40%
    17:00 +19°C° 0 mm 2 m/s 625 mmHg 48%
    18:00 +18°C° 0 mm 2 m/s 624 mmHg 55%
    19:00 +16°C° 0 mm 1 m/s 624 mmHg 60%
    20:00 +14°C° 0 mm 1 m/s 623 mmHg 64%
    21:00 +11°C° 0 mm 0 m/s 623 mmHg 69%
    22:00 +12°C° 0 mm 1 m/s 623 mmHg 68%
    23:00 +12°C° 0 mm 1 m/s 623 mmHg 67%

    20 Iunie, Joi

    Timp Temperatura Precipitaţii Vânt Presiune Umiditate
    00:00 +12°C° 0 mm 1 m/s 623 mmHg 66%
    01:00 +12°C° 0 mm 1 m/s 623 mmHg 66%
    02:00 +12°C° 0 mm 1 m/s 623 mmHg 66%
    03:00 +12°C° 0 mm 1 m/s 623 mmHg 66%
    04:00 +13°C° 0 mm 1 m/s 623 mmHg 67%
    05:00 +12°C° 0 mm 0 m/s 624 mmHg 68%
    06:00 +13°C° 0 mm 0 m/s 624 mmHg 70%
    07:00 +15°C° 0 mm 1 m/s 625 mmHg 64%
    08:00 +17°C° 0 mm 2 m/s 625 mmHg 59%
    09:00 +18°C° 0 mm 2 m/s 626 mmHg 54%
    10:00 +19°C° 0.1 mm 3 m/s 626 mmHg 51%
    11:00 +19°C° 0.1 mm 4 m/s 627 mmHg 48%
    12:00 +20°C° 0.1 mm 4 m/s 627 mmHg 45%
    13:00 +20°C° 0.1 mm 4 m/s 626 mmHg 49%
    14:00 +19°C° 0.1 mm 4 m/s 626 mmHg 52%
    15:00 +19°C° 0.1 mm 4 m/s 625 mmHg 55%
    16:00 +17°C° 0.3 mm 3 m/s 625 mmHg 63%
    17:00 +16°C° 0.3 mm 2 m/s 625 mmHg 71%
    18:00 +15°C° 0.3 mm 1 m/s 625 mmHg 79%
    19:00 +14°C° 0.3 mm 1 m/s 624 mmHg 84%
    20:00 +13°C° 0.3 mm 1 m/s 624 mmHg 90%
    21:00 +11°C° 0.3 mm 1 m/s 624 mmHg 95%
    22:00 +11°C° 0.3 mm 1 m/s 624 mmHg 95%
    23:00 +11°C° 0.3 mm 1 m/s 624 mmHg 95%

    21 Iunie, Vineri

    Timp Temperatura Precipitaţii Vânt Presiune Umiditate
    00:00 +11°C° 0.3 mm 1 m/s 624 mmHg 94%
    01:00 +11°C° 0.3 mm 1 m/s 624 mmHg 94%
    02:00 +11°C° 0.3 mm 1 m/s 624 mmHg 95%
    03:00 +10°C° 0.3 mm 0 m/s 624 mmHg 95%
    04:00 +11°C° 0.6 mm 1 m/s 624 mmHg 95%
    05:00 +11°C° 0.6 mm 1 m/s 624 mmHg 95%
    06:00 +12°C° 0.6 mm 1 m/s 625 mmHg 95%
    07:00 +12°C° 1 mm 1 m/s 625 mmHg 92%
    08:00 +13°C° 1 mm 1 m/s 625 mmHg 90%
    09:00 +13°C° 1 mm 1 m/s 626 mmHg 87%
    10:00 +14°C° 1.2 mm 1 m/s 626 mmHg 86%
    11:00 +14°C° 1.2 mm 2 m/s 626 mmHg 85%
    12:00 +15°C° 1.2 mm 2 m/s 626 mmHg 84%
    13:00 +15°C° 1.2 mm 2 m/s 626 mmHg 84%
    14:00 +15°C° 1.2 mm 2 m/s 626 mmHg 84%
    15:00 +15°C° 1.2 mm 1 m/s 625 mmHg 84%
    16:00 +14°C° 0.9 mm 1 m/s 625 mmHg 86%
    17:00 +14°C° 0.9 mm 1 m/s 625 mmHg 87%
    18:00 +12°C° 0.9 mm 0 m/s 625 mmHg 89%
    19:00 +12°C° 0.2 mm 1 m/s 625 mmHg 91%
    20:00 +11°C° 0.2 mm 1 m/s 625 mmHg 93%
    21:00 +10°C° 0.2 mm 1 m/s 625 mmHg 94%
    22:00 +10°C° 0 mm 1 m/s 625 mmHg 94%
    23:00 +8°C° 0 mm 0 m/s 624 mmHg 94%
    Arată mai mult